Погода Ремонтное

Погода Ремонтное : погода сейчас, прогноз погоды и архив. Всё, что Вы хотите узнать о погоде Ремонтное!

Поиск расширенной информации на нашем сайте:

Другие новости

Новости СМИ2

Главная страница сайта

Новости сайта

02.10.2013

Напоминаем, что на нашем новом сайте вы можете получить высокодетализированные прогнозы погоды по пунктам России, СНГ и мира (включающие важные для авиации метеовеличины, такие как направление и скорость ветра, видимость, явления погоды, количество и форма облачности, нижняя и верхняя граница облачности), а также ознакомиться с разнообразными материалами по авиационной метеорологии и подборкой полезных ссылок на эту тему.

Сайт Метеоцентр.Азия посвящён разработке технологий оптимизации авиаметеорологического обслуживания, включая проектирование и перспективное создание нескольких автоматизированных авиаметеорологических систем:
- система выпуска высокодетальных прогностических карт явлений погоды для нижнего воздушного пространства по России и ближнему зарубежью;
- система верификации прогнозов TAF (выпускаемых синоптиками официальных АМСГ РФ и ближнего зарубежья) и AUTOTAF (выпускаемых сайтом Метеоцентр.Азия) - выявление ошибок, онлайн-сопоставление с фактической погодой METAR, автоматическое внесение коррективов в прогнозы при резком отклонении фактической погоды от прогноза, подсчёт оправдываемости прогнозов по элементам и в целом;
- система обработки, анализа и отображения авиаметеорологической информации для применения провайдерами метеорологической информации.

Рекомендуем: Статьи о мрт внутренних органов.

Погода Ремонтное - сегодня

Время (UTC), дата Ветер
(°,м/с) 
Видим.   Явления Облачность Т
(°С)
Тd
(°С)
f(%) Тe
(°С)
Pmin
(гПа)
dP
(гПа)
Po
(мм)
O2
(г/м3)
Тmin Tmax R s Состояние
почвы
03 20.04.17 300 (СЗ) 10 км    10/10 300 м кучево-дожд. 
[Cb cap]
+6.3 +3.7 83 +5  1019.7  755  297  +5.7        сухая 
06 20.04.17 280 (З) 10 км    10/10 300 м кучево-дожд. 
[Cb cap]
+4 +0.9 80 +3  1021.5  1.7  756  300  +4         
09 20.04.17 300 (СЗ) 10 км    10/10 600 м кучево-дожд. 
[Cb cap]
+5.2 +0.3 71 +4  1022  0.5  757  299           
12 20.04.17 360 (С) 10 км    10/3 600 м верхняя 
[Sc diur, vesp|Ci]
+9.8 +1.4 56 +9  1020.6  -1.2  756  294           
15 20.04.17 040 (СВ) 10 км    10/0 верхняя 
[Ci]
+9.6 +1.1 55 +9  1019.9  -0.7  755  294    +10.6       
18 20.04.17 110 (В) 10 км    1/0 верхняя 
[Ci fib]
+3.4 +0.5 81 +3  1021.1  0.9  756  301           
21 20.04.17 100 (В) 4000 м  дымка  ясно 
+1.7 -0.2 87 +2  1020.4  -0.7  755  302           
00 21.04.17 110 (В) 10 км    3/0 верхняя 
[Ci fib]
+3.1 -0.4 78 +1  1018.5  -1.8  754  300           
03 21.04.17 100 (В) 10 км    10/9 600 м кучево-дожд., верхняя 
[Cb cap|Ci]
+2.3 -0.7 81 1017.1  -1.5  753  301  +1.6        сухая 
06 21.04.17 100 (В) 6-10{13}  10 км    10/4 600 м кучево-дожд., средняя 
[Cb cap|Ac und]
+6.4 +1.1 69 +4  1016.6  -0.3  753  296           
09 21.04.17 090 (В) 6-11{13}  10 км    10/10 600 м 
[Sc]
+9.4 +3.4 66 +8  1016.1  -0.3  752  293           
12 21.04.17 110 (В) 6-10{11}  10 км    10/8 600 м кучево-дожд., средняя 
[Cb cap|Ac und]
+12.3 +5.7 64 +11  1013.6  -2.3  751  289           
15 21.04.17 150 (ЮВ) 1{10}  10 км  в посл. час ливневой дождь  10/10 300 м кучево-дожд. 
[Cb cap]
+11.1 +8.7 85 +12  1012.4  -1.3  750  289    +12.9  0.5     
18 21.04.17 270 (З) 4000 м  слаб. ливневой дождь  10/10 600 м кучево-дожд. 
[Cb cap]
+9.8 +8.6 92 +9  1013.1  0.6  750  290           
21 21.04.17 280 (З) 6-12{14}  4000 м  слаб. ливневой дождь  10/10 600 м кучево-дожд. 
[Cb cap]
+4.4 +2.9 90 +2  1014.4  1.1  751  297           
00 22.04.17 210 (ЮЗ) 1{12}  2000 м  в посл. час ливневой дождь  10/10 300 м кучево-дожд. 
[Cb cap]
+3.6 +2.6 93 +4  1013.1  -1.4  750  298           
03 22.04.17 200 (Ю) 4000 м  дымка  9/9 600 м кучево-дожд. 
[Cb cap]
+3.6 +2.6 93 +2  1011.4  -1.6  749  297  +3    12    влажная 
06 22.04.17 240 (ЮЗ) 8-13{15}  10 км    9/9 300 м 
[Sc diur, vesp]
+7.5 +2.2 69 +5  1010.8  -0.5  748  293           
09 22.04.17 250 (З) 11-21{21}  10 км  {ливн. осадки}  9/9 300 м кучево-дожд. 
[Cb cap]
+8.6 +2.1 64 +6  1010.8  0.1  748  292           
12 22.04.17 260 (З) 9-17{22}  10 км  в посл. час ливневой дождь  8/6 300 м кучево-дожд., средняя 
[Cb cap|Ac trans]
+8.1 +4 75 +5  1013.2  2.3  750  293           
15 22.04.17 270 (З) 7-13{19}  10 км    9/3 600 м средняя 
[Sc diur, vesp|Ac cuf]
+7.4 +1.8 68 +5  1016  2.7  752  295    +9.8  0.4     
18 22.04.17 230 (ЮЗ) 2{13}  10 км    ясно 
+5.2 +1.7 78 +5  1016.7  0.6  753  297           
21 22.04.17 230 (ЮЗ) 10 км    ясно 
+5.2 +2.2 81 +4  1017.4  0.8  753  297           
00 23.04.17 220 (ЮЗ) 10 км    10/10 600 м 
[Sc]
+5.5 +2.6 82 +4  1016.4  -1  752  297           
03 23.04.17 210 (ЮЗ) 10 км    10/10 600 м 
[Sc]
+5.6 +2.1 78 +5  1015.9  -0.5  752  297  +4.9        влажная 
Время (UTC), дата Ветер
(°,м/с) 
Видим.   Явления Облачность Т
(°С)
Тd
(°С)
f(%) Тe
(°С)
Pmin
(гПа)
dP
(гПа)
Po
(мм)
O2
(г/м3)
Тmin Tmax R s Состояние
почвы

Для получения пояснительной информации подведите курсор к названию столбца.

ПОГОДА Ремонтное - архив

Всё, что Вы хотите узнать о погоде Ремонтное - удобно и подробно!

Выберите нужную дату (начиная с 1 января 2015* года) и нажмите кнопку "Найти".
Будут отображены архивные сводки погоды по пункту Ремонтное, начиная с указанной даты.


Отображать данные в формате CSV (для использования в таблицах Excel)


Внимание! Наш архив погоды предназначен исключительно для личного некоммерческого использования в познавательных целях. Если Вам необходимы официальные справки о состоянии погоды (для производственных, юридических, коммерческих и т.п. целей), обращайтесь в органы Росгидромета.

*Примечание: данная дата относится к архиву по метеостанциям СССР (Россия, СНГ, Балтия).
Архив по метеостанциям Зарубежной Европы и Азии (кроме Китая) хранится 10 дней, по другим регионам земного шара (Китай, Африка, Америка, Австралия, Океания) - 1 день.

Ремонтное - район местоположения метеостанции


Название, широта, долгота, высота метеостанции:
Ремонтное 46.6°ш. 43.7°д. 106 м над ур. моря [Российская Федерация]

Дополнительная информация

В oтличие oт бoльшинства пoгoдных сайтoв мы публикуем пoдрoбную метеoинфoрмацию в детальнoм прoфессиoнальнoм фoрмате.

Характеристики температуры и влажнoсти вoздуха измеряются на высoте 2 м в тени вдали oт зданий и деревьев.
Скoрoсть ветра измеряется на высoте 10 м (на урoвне рoста челoвека скoрoсть ветра ниже в 1.5-2 раза). Если метеoстанция нахoдится в гoрoде или в лесу, тo скoрoсть ветра занижена на 2-4 м/с пo сравнению с oткрытым местoм. Скoрoсть ветра над акватoриями крупных рек и oзёр, а также на вершинах хoлмoв на 2-5 м/с выше, чем в oбычных услoвиях.
Атмoсфернoе давление в разных тoчках местнoсти мoжет значительнo oтличаться oт давления на метеoстанции, в зависимoсти oт услoвий рельефа (при пoдъёме на 10 м давление пoнижается примернo на 1 мм рт.ст.).